Time,TemperatureF,DewpointF,PressureIn,WindDirection,WindDirectionDegrees,WindSpeedMPH,WindSpeedGustMPH,Humidity,HourlyPrecipIn,Conditions,Clouds,dailyrainin,SoftwareType,DateUTC
2013-09-27 00:05:00,53.0,50.0,30.10,NE,48,0.0,0.0,88,0.00,,,0.01,,2013-09-27 04:05:00,
2013-09-27 00:24:00,52.0,49.0,30.10,NE,48,0.0,0.0,90,0.00,,,0.01,,2013-09-27 04:24:00,
2013-09-27 00:33:00,52.0,49.0,30.10,NE,48,0.0,0.0,90,0.00,,,0.01,,2013-09-27 04:33:00,
2013-09-27 00:44:00,52.0,49.0,30.10,NE,48,0.0,0.0,90,0.00,,,0.01,,2013-09-27 04:44:00,
2013-09-27 00:54:00,51.0,48.0,30.10,NE,48,0.0,0.0,90,0.00,,,0.01,,2013-09-27 04:54:00,
2013-09-27 01:04:00,51.0,48.0,30.10,NE,48,0.0,0.0,90,0.00,,,0.01,,2013-09-27 05:04:00,
2013-09-27 01:13:00,51.0,48.0,30.10,NE,48,0.0,0.0,90,0.00,,,0.01,,2013-09-27 05:13:00,
2013-09-27 01:23:00,51.0,48.0,30.11,NE,48,0.0,1.0,91,0.00,,,0.01,,2013-09-27 05:23:00,
2013-09-27 01:34:00,51.0,48.0,30.11,NE,48,0.0,1.0,91,0.00,,,0.01,,2013-09-27 05:34:00,
2013-09-27 01:52:00,50.0,47.0,30.11,NE,48,0.0,0.0,91,0.00,,,0.01,,2013-09-27 05:52:00,
2013-09-27 02:02:00,50.0,47.0,30.11,NE,48,0.0,0.0,91,0.00,,,0.01,,2013-09-27 06:02:00,
2013-09-27 02:12:00,50.0,47.0,30.11,NE,48,0.0,0.0,91,0.00,,,0.01,,2013-09-27 06:12:00,
2013-09-27 02:22:00,50.0,47.0,30.11,NE,48,0.0,0.0,91,0.00,,,0.01,,2013-09-27 06:22:00,
2013-09-27 02:32:00,50.0,47.0,30.11,NE,48,0.0,0.0,91,0.00,,,0.01,,2013-09-27 06:32:00,
2013-09-27 02:52:00,49.0,47.0,30.11,NE,48,0.0,0.0,92,0.00,,,0.01,,2013-09-27 06:52:00,
2013-09-27 03:02:00,49.0,47.0,30.11,NE,48,0.0,0.0,92,0.00,,,0.01,,2013-09-27 07:02:00,
2013-09-27 03:22:00,48.0,46.0,30.11,NE,48,0.0,0.0,92,0.00,,,0.01,,2013-09-27 07:22:00,
2013-09-27 03:32:00,48.0,46.0,30.11,NE,48,0.0,0.0,92,0.00,,,0.01,,2013-09-27 07:32:00,
2013-09-27 03:53:00,48.0,46.0,30.11,NE,48,0.0,0.0,92,0.00,,,0.01,,2013-09-27 07:53:00,
2013-09-27 04:02:00,48.0,46.0,30.11,NE,48,0.0,0.0,92,0.00,,,0.01,,2013-09-27 08:02:00,
2013-09-27 04:22:00,47.0,45.0,30.11,NE,48,0.0,0.0,92,0.00,,,0.01,,2013-09-27 08:22:00,
2013-09-27 04:32:00,47.0,45.0,30.11,NE,48,0.0,0.0,92,0.00,,,0.01,,2013-09-27 08:32:00,
2013-09-27 04:42:00,47.0,45.0,30.11,NE,48,0.0,0.0,92,0.00,,,0.01,,2013-09-27 08:42:00,
2013-09-27 04:52:00,47.0,45.0,30.12,NE,48,0.0,0.0,93,0.00,,,0.01,,2013-09-27 08:52:00,
2013-09-27 05:02:00,47.0,45.0,30.12,NE,48,0.0,0.0,93,0.00,,,0.01,,2013-09-27 09:02:00,
2013-09-27 05:12:00,47.0,45.0,30.12,NE,48,0.0,0.0,93,0.00,,,0.01,,2013-09-27 09:12:00,
2013-09-27 05:22:00,47.0,45.0,30.13,NE,48,0.0,0.0,93,0.00,,,0.01,,2013-09-27 09:22:00,
2013-09-27 05:33:00,47.0,45.0,30.13,NE,48,0.0,0.0,93,0.00,,,0.01,,2013-09-27 09:33:00,
2013-09-27 05:54:00,46.0,44.0,30.13,NE,48,0.0,0.0,93,0.00,,,0.01,,2013-09-27 09:54:00,
2013-09-27 06:03:00,46.0,44.0,30.13,NE,48,0.0,0.0,93,0.00,,,0.01,,2013-09-27 10:03:00,
2013-09-27 06:23:00,46.0,44.0,30.14,NE,48,0.0,0.0,93,0.00,,,0.01,,2013-09-27 10:23:00,
2013-09-27 06:33:00,46.0,44.0,30.14,NE,48,0.0,0.0,93,0.00,,,0.01,,2013-09-27 10:33:00,
2013-09-27 06:53:00,46.0,44.0,30.14,NE,48,0.0,0.0,93,0.00,,,0.01,,2013-09-27 10:53:00,
2013-09-27 07:03:00,46.0,44.0,30.14,NE,48,0.0,0.0,93,0.00,,,0.01,,2013-09-27 11:03:00,
2013-09-27 07:12:00,46.0,44.0,30.14,NE,48,0.0,0.0,93,0.00,,,0.01,,2013-09-27 11:12:00,
2013-09-27 07:22:00,45.0,43.0,30.15,NE,48,0.0,0.0,93,0.00,,,0.01,,2013-09-27 11:22:00,
2013-09-27 07:33:00,45.0,43.0,30.15,NE,48,0.0,0.0,93,0.00,,,0.01,,2013-09-27 11:33:00,
2013-09-27 07:52:00,45.0,43.0,30.16,NE,48,0.0,0.0,94,0.00,,,0.01,,2013-09-27 11:52:00,
2013-09-27 08:02:00,45.0,43.0,30.16,NE,48,0.0,0.0,94,0.00,,,0.01,,2013-09-27 12:02:00,
2013-09-27 08:12:00,45.0,43.0,30.16,NE,48,0.0,0.0,94,0.00,,,0.01,,2013-09-27 12:12:00,
2013-09-27 08:21:00,45.0,43.0,30.17,NE,48,0.0,0.0,94,0.00,,,0.00,,2013-09-27 12:21:00,
2013-09-27 08:32:00,45.0,43.0,30.17,NE,48,0.0,0.0,94,0.00,,,0.00,,2013-09-27 12:32:00,
2013-09-27 08:52:00,47.0,46.0,30.18,NE,48,0.0,0.0,95,0.00,,,0.00,,2013-09-27 12:52:00,
2013-09-27 09:11:00,47.0,46.0,30.18,NE,48,0.0,0.0,95,0.00,,,0.00,,2013-09-27 13:11:00,
2013-09-27 09:22:00,51.0,50.0,30.18,NE,48,0.0,1.0,95,0.00,,,0.00,,2013-09-27 13:22:00,
2013-09-27 09:32:00,51.0,50.0,30.18,NE,48,0.0,1.0,95,0.00,,,0.00,,2013-09-27 13:32:00,
2013-09-27 09:53:00,55.0,52.0,30.19,NE,48,0.0,2.0,91,0.00,,,0.00,,2013-09-27 13:53:00,
2013-09-27 10:02:00,55.0,52.0,30.19,NE,48,0.0,2.0,91,0.00,,,0.00,,2013-09-27 14:02:00,
2013-09-27 10:11:00,55.0,52.0,30.19,NE,48,0.0,2.0,91,0.00,,,0.00,,2013-09-27 14:11:00,
2013-09-27 10:22:00,60.0,53.0,30.19,NE,48,0.0,2.0,79,0.00,,,0.00,,2013-09-27 14:22:00,
2013-09-27 10:32:00,60.0,53.0,30.19,NE,48,0.0,2.0,79,0.00,,,0.00,,2013-09-27 14:32:00,
2013-09-27 10:52:00,63.0,54.0,30.19,NE,48,0.0,4.0,72,0.00,,,0.00,,2013-09-27 14:52:00,
2013-09-27 11:02:00,63.0,54.0,30.19,NE,48,0.0,4.0,72,0.00,,,0.00,,2013-09-27 15:02:00,
2013-09-27 11:22:00,66.0,55.0,30.19,NE,48,2.0,4.0,68,0.00,,,0.00,,2013-09-27 15:22:00,
2013-09-27 11:33:00,66.0,55.0,30.19,NE,48,2.0,4.0,68,0.00,,,0.00,,2013-09-27 15:33:00,
2013-09-27 11:54:00,69.0,56.0,30.19,NE,48,1.0,4.0,63,0.00,,,0.00,,2013-09-27 15:54:00,
2013-09-27 12:04:00,69.0,56.0,30.19,NE,48,1.0,4.0,63,0.00,,,0.00,,2013-09-27 16:04:00,
2013-09-27 12:13:00,69.0,56.0,30.19,NE,48,1.0,4.0,63,0.00,,,0.00,,2013-09-27 16:13:00,
2013-09-27 12:24:00,72.0,55.0,30.19,NE,48,1.0,5.0,55,0.00,,,0.00,,2013-09-27 16:24:00,
2013-09-27 12:34:00,72.0,55.0,30.19,NE,48,1.0,5.0,55,0.00,,,0.00,,2013-09-27 16:34:00,
2013-09-27 12:53:00,74.0,54.0,30.19,NE,47,3.0,5.0,49,0.00,,,0.00,,2013-09-27 16:53:00,
2013-09-27 13:03:00,74.0,54.0,30.19,NE,47,3.0,5.0,49,0.00,,,0.00,,2013-09-27 17:03:00,
2013-09-27 13:13:00,74.0,54.0,30.19,NE,47,3.0,5.0,49,0.00,,,0.00,,2013-09-27 17:13:00,
2013-09-27 13:23:00,74.0,54.0,30.17,ENE,63,1.0,4.0,50,0.00,,,0.00,,2013-09-27 17:23:00,
2013-09-27 13:34:00,74.0,54.0,30.17,ENE,63,1.0,4.0,50,0.00,,,0.00,,2013-09-27 17:34:00,
2013-09-27 13:52:00,75.0,53.0,30.16,NNW,329,3.0,6.0,46,0.00,,,0.00,,2013-09-27 17:52:00,
2013-09-27 14:02:00,75.0,53.0,30.16,NNW,329,3.0,6.0,46,0.00,,,0.00,,2013-09-27 18:02:00,
2013-09-27 14:13:00,75.0,53.0,30.16,NNW,329,3.0,6.0,46,0.00,,,0.00,,2013-09-27 18:13:00,
2013-09-27 14:22:00,75.0,53.0,30.15,North,360,4.0,8.0,46,0.00,,,0.00,,2013-09-27 18:22:00,
2013-09-27 14:33:00,75.0,53.0,30.15,North,360,4.0,8.0,46,0.00,,,0.00,,2013-09-27 18:33:00,
2013-09-27 14:52:00,76.0,52.0,30.14,North,9,3.0,6.0,44,0.00,,,0.00,,2013-09-27 18:52:00,
2013-09-27 15:02:00,76.0,52.0,30.14,North,9,3.0,6.0,44,0.00,,,0.00,,2013-09-27 19:02:00,
2013-09-27 15:12:00,76.0,52.0,30.14,North,9,3.0,6.0,44,0.00,,,0.00,,2013-09-27 19:12:00,
2013-09-27 15:23:00,76.0,54.0,30.13,East,89,2.0,8.0,46,0.00,,,0.00,,2013-09-27 19:23:00,
2013-09-27 15:32:00,76.0,54.0,30.13,East,89,2.0,8.0,46,0.00,,,0.00,,2013-09-27 19:32:00,
2013-09-27 15:53:00,77.0,53.0,30.12,ENE,78,3.0,6.0,43,0.00,,,0.00,,2013-09-27 19:53:00,
2013-09-27 16:03:00,77.0,53.0,30.12,ENE,78,3.0,6.0,43,0.00,,,0.00,,2013-09-27 20:03:00,
2013-09-27 16:12:00,77.0,53.0,30.12,ENE,78,3.0,6.0,43,0.00,,,0.00,,2013-09-27 20:12:00,
2013-09-27 16:22:00,77.0,52.0,30.12,East,91,1.0,8.0,42,0.00,,,0.00,,2013-09-27 20:22:00,
2013-09-27 16:32:00,77.0,52.0,30.12,East,91,1.0,8.0,42,0.00,,,0.00,,2013-09-27 20:32:00,
2013-09-27 16:43:00,77.0,52.0,30.12,East,91,1.0,8.0,42,0.00,,,0.00,,2013-09-27 20:43:00,
2013-09-27 16:52:00,78.0,52.0,30.12,NNE,27,0.0,4.0,41,0.00,,,0.00,,2013-09-27 20:52:00,
2013-09-27 17:02:00,78.0,52.0,30.12,NNE,27,0.0,4.0,41,0.00,,,0.00,,2013-09-27 21:02:00,
2013-09-27 17:12:00,78.0,52.0,30.12,NNE,27,0.0,4.0,41,0.00,,,0.00,,2013-09-27 21:12:00,
2013-09-27 17:22:00,77.0,53.0,30.12,East,92,2.0,5.0,43,0.00,,,0.00,,2013-09-27 21:22:00,
2013-09-27 17:34:00,77.0,53.0,30.12,East,92,2.0,5.0,43,0.00,,,0.00,,2013-09-27 21:34:00,
2013-09-27 17:54:00,78.0,53.0,30.12,NNE,33,2.0,8.0,42,0.00,,,0.00,,2013-09-27 21:54:00,
2013-09-27 18:04:00,78.0,53.0,30.12,NNE,33,2.0,8.0,42,0.00,,,0.00,,2013-09-27 22:04:00,
2013-09-27 18:24:00,76.0,52.0,30.13,North,11,3.0,7.0,43,0.00,,,0.00,,2013-09-27 22:24:00,
2013-09-27 18:34:00,76.0,52.0,30.13,North,11,3.0,7.0,43,0.00,,,0.00,,2013-09-27 22:34:00,
2013-09-27 18:53:00,75.0,52.0,30.13,East,84,2.0,6.0,44,0.00,,,0.00,,2013-09-27 22:53:00,
2013-09-27 19:03:00,75.0,52.0,30.13,East,84,2.0,6.0,44,0.00,,,0.00,,2013-09-27 23:03:00,
2013-09-27 19:22:00,73.0,52.0,30.13,NNE,30,0.0,5.0,48,0.00,,,0.00,,2013-09-27 23:22:00,
2013-09-27 19:34:00,73.0,52.0,30.13,NNE,30,0.0,5.0,48,0.00,,,0.00,,2013-09-27 23:34:00,
2013-09-27 19:53:00,71.0,53.0,30.13,NNE,30,0.0,2.0,53,0.00,,,0.00,,2013-09-27 23:53:00,
2013-09-27 20:02:00,71.0,53.0,30.13,NNE,30,0.0,2.0,53,0.00,,,0.00,,2013-09-28 00:02:00,
2013-09-27 20:12:00,71.0,53.0,30.13,NNE,30,0.0,2.0,53,0.00,,,0.00,,2013-09-28 00:12:00,
2013-09-27 20:22:00,68.0,54.0,30.13,NNE,30,0.0,0.0,61,0.00,,,0.00,,2013-09-28 00:22:00,
2013-09-27 20:32:00,68.0,54.0,30.13,NNE,30,0.0,0.0,61,0.00,,,0.00,,2013-09-28 00:32:00,
2013-09-27 20:42:00,68.0,54.0,30.13,NNE,30,0.0,0.0,61,0.00,,,0.00,,2013-09-28 00:42:00,
2013-09-27 20:52:00,63.0,55.0,30.14,NNE,30,0.0,0.0,74,0.00,,,0.00,,2013-09-28 00:52:00,
2013-09-27 21:01:00,63.0,55.0,30.14,NNE,30,0.0,0.0,74,0.00,,,0.00,,2013-09-28 01:01:00,
2013-09-27 21:22:00,60.0,54.0,30.14,NNE,30,0.0,0.0,80,0.00,,,0.00,,2013-09-28 01:22:00,
2013-09-27 21:32:00,60.0,54.0,30.14,NNE,30,0.0,0.0,80,0.00,,,0.00,,2013-09-28 01:32:00,
2013-09-27 21:42:00,60.0,54.0,30.14,NNE,30,0.0,0.0,80,0.00,,,0.00,,2013-09-28 01:42:00,
2013-09-27 21:52:00,59.0,54.0,30.15,NNE,30,0.0,0.0,84,0.00,,,0.00,,2013-09-28 01:52:00,
2013-09-27 22:03:00,59.0,54.0,30.15,NNE,30,0.0,0.0,84,0.00,,,0.00,,2013-09-28 02:03:00,
2013-09-27 22:22:00,57.0,53.0,30.15,NNE,30,0.0,0.0,87,0.00,,,0.00,,2013-09-28 02:22:00,
2013-09-27 22:32:00,57.0,53.0,30.15,NNE,30,0.0,0.0,87,0.00,,,0.00,,2013-09-28 02:32:00,
2013-09-27 22:53:00,56.0,52.0,30.16,NNE,30,0.0,0.0,88,0.00,,,0.00,,2013-09-28 02:53:00,
2013-09-27 23:03:00,56.0,52.0,30.16,NNE,30,0.0,0.0,88,0.00,,,0.00,,2013-09-28 03:03:00,
2013-09-27 23:22:00,55.0,52.0,30.16,NNE,30,0.0,0.0,89,0.00,,,0.00,,2013-09-28 03:22:00,
2013-09-27 23:34:00,55.0,52.0,30.16,NNE,30,0.0,0.0,89,0.00,,,0.00,,2013-09-28 03:34:00,
2013-09-27 23:55:00,55.0,52.0,30.16,NNE,30,0.0,0.0,90,0.00,,,0.00,,2013-09-28 03:55:00,